Glasgow, KY

8:06 PM CDT on April 25, 2017 (GMT -0500)
Glasgow Municipal

Weather History for KGLW - November, 2012

Change the Weather History Date:

Thursday, November 1, 2012

  Actual Average Record
Temperature  
Mean Temperature 42 °F -  
Max Temperature 58 °F 68 °F 84 °F (2016)
Min Temperature 26 °F 46 °F 23 °F (1993)
Degree Days  
Heating Degree Days 23    
Moisture  
Dew Point 25 °F    
Average Humidity 61    
Maximum Humidity 100    
Minimum Humidity 20    
Precipitation  
Precipitation 0.00 in - - ()
Sea Level Pressure  
Sea Level Pressure 29.95 in    
Wind  
Wind Speed 2 mph (West)    
Max Wind Speed 13 mph    
Max Gust Speed 17 mph    
Visibility 10 miles    
Events      
Averages and records for this station are not official NWS values.
T = Trace of Precipitation, MM = Missing Value Source: NWS Daily Summary

Daily Weather History Graph

Daily Weather History Graph

Search for Another Location

Airport or City:

Trip Planner

Search our weather history database for the weather conditions in past years. The results will help you decide how hot, cold, wet, or windy it might be!

Date:

Astronomy

Nov. 01, 2012 Rise Set
Actual Time 7:08 AM CDT 5:45 PM CDT
Civil Twilight 6:41 AM CDT 6:12 PM CDT
Nautical Twilight 6:10 AM CDT 6:43 PM CDT
Astronomical Twilight 5:40 AM CDT 7:13 PM CDT
Moon 7:45 PM CDT (11/1) 9:37 AM CDT (11/1)
Length of Visible Light 11h 31m
Length of Day
10h 37m
Waning Gibbous, 93% of the Moon is Illuminated
Nov 1
Waning Gibbous
Nov 6
Last Quarter
Nov 13
New
Nov 20
First Quarter
Nov 28
Full

Hourly Weather History & Observations

Time (CDT) Temp. Windchill Dew Point Humidity Pressure Visibility Wind Dir Wind Speed Gust Speed Precip Events Conditions
12:15 AM 32.4 °F - 28.6 °F 86% 29.93 in 10.0 mi Calm Calm - N/A   Clear
12:35 AM 32.0 °F - 28.4 °F 87% 29.93 in 10.0 mi Calm Calm - N/A   Clear
12:55 AM 32.0 °F - 28.2 °F 86% 29.93 in 10.0 mi Calm Calm - N/A   Clear
1:15 AM 31.3 °F - 28.2 °F 88% 29.93 in 10.0 mi Calm Calm - N/A   Clear
1:35 AM 31.3 °F - 28.4 °F 89% 29.93 in 10.0 mi Calm Calm - N/A   Clear
1:55 AM 31.1 °F - 28.2 °F 89% 29.92 in 10.0 mi Calm Calm - N/A   Clear
2:15 AM 29.7 °F - 28.8 °F 96% 29.93 in 10.0 mi Calm Calm - N/A   Clear
2:35 AM 29.3 °F - 29.3 °F 100% 29.93 in 10.0 mi Calm Calm - N/A   Clear
2:55 AM 29.7 °F - 29.7 °F 100% 29.93 in 10.0 mi Calm Calm - N/A   Clear
3:15 AM 28.9 °F - 28.9 °F 100% 29.93 in 10.0 mi Calm Calm - N/A   Clear
3:35 AM 29.3 °F - 29.3 °F 100% 29.93 in 10.0 mi Calm Calm - N/A   Clear
3:55 AM 28.8 °F - 28.8 °F 100% 29.93 in 10.0 mi Calm Calm - N/A   Clear
4:15 AM 28.9 °F - 28.9 °F 100% 29.93 in 10.0 mi Calm Calm - N/A   Clear
4:35 AM 28.9 °F - 28.9 °F 100% 29.93 in 10.0 mi Calm Calm - N/A   Clear
4:55 AM 27.9 °F - 27.9 °F 100% 29.93 in 10.0 mi Calm Calm - N/A   Clear
5:15 AM 27.7 °F - 27.7 °F 100% 29.93 in 10.0 mi Calm Calm - N/A   Clear
5:35 AM 27.5 °F - 27.5 °F 100% 29.94 in 10.0 mi Calm Calm - N/A   Clear
5:55 AM 27.3 °F - 27.3 °F 100% 29.95 in 10.0 mi Calm Calm - N/A   Clear
6:15 AM 26.8 °F - 26.8 °F 100% 29.95 in 10.0 mi Calm Calm - N/A   Clear
6:35 AM 26.4 °F - 26.4 °F 100% 29.96 in 10.0 mi Calm Calm - N/A   Clear
6:55 AM 26.6 °F - 26.6 °F 100% 29.96 in 10.0 mi Calm Calm - N/A   Clear
7:15 AM 26.2 °F - 26.2 °F 100% 29.97 in 10.0 mi Calm Calm - N/A   Clear
7:35 AM 26.4 °F - 26.4 °F 100% 29.97 in 10.0 mi Calm Calm - N/A   Clear
7:55 AM 27.3 °F - 27.3 °F 100% 29.98 in 10.0 mi Calm Calm - N/A   Clear
8:15 AM 28.9 °F - 28.9 °F 100% 29.98 in 10.0 mi Calm Calm - N/A   Clear
8:35 AM 31.5 °F - 28.9 °F 90% 29.98 in 10.0 mi Calm Calm - N/A   Clear
8:55 AM 33.8 °F 30.8 °F 28.0 °F 79% 29.99 in 10.0 mi WSW 3.5 mph - N/A   Clear
9:15 AM 36.5 °F 32.7 °F 28.2 °F 72% 30.00 in 10.0 mi WSW 4.6 mph - N/A   Clear
9:35 AM 39.6 °F 34.7 °F 28.2 °F 64% 29.99 in 10.0 mi West 6.9 mph - N/A   Clear
9:55 AM 41.7 °F 36.7 °F 26.8 °F 55% 30.00 in 10.0 mi WNW 8.1 mph - N/A   Clear
10:15 AM 43.2 °F 40.5 °F 26.4 °F 52% 30.00 in 10.0 mi WNW 4.6 mph - N/A   Clear
10:35 AM 45.0 °F 41.8 °F 26.2 °F 48% 30.00 in 10.0 mi WSW 5.8 mph - N/A   Clear
10:55 AM 46.6 °F - 25.5 °F 44% 30.01 in 10.0 mi West 8.1 mph - N/A   Mostly Cloudy
11:15 AM 47.8 °F - 25.0 °F 41% 30.01 in 10.0 mi West 8.1 mph - N/A   Mostly Cloudy
11:35 AM 49.8 °F - 23.9 °F 36% 30.00 in 10.0 mi West 10.4 mph - N/A   Mostly Cloudy
11:55 AM 51.1 °F - 23.9 °F 35% 29.99 in 10.0 mi West 6.9 mph - N/A   Mostly Cloudy
12:15 PM 51.1 °F - 23.4 °F 34% 29.98 in 10.0 mi WSW 8.1 mph - N/A   Scattered Clouds
12:35 PM 52.5 °F - 22.6 °F 31% 29.97 in 10.0 mi WSW 9.2 mph - N/A   Clear
12:55 PM 53.8 °F - 20.8 °F 28% 29.96 in 10.0 mi WNW 6.9 mph - N/A   Scattered Clouds
1:15 PM 55.2 °F - 19.2 °F 25% 29.96 in 10.0 mi West 4.6 mph - N/A   Mostly Cloudy
1:35 PM 55.6 °F - 19.2 °F 24% 29.96 in 10.0 mi WNW 8.1 mph - N/A   Scattered Clouds
1:55 PM 56.1 °F - 18.3 °F 23% 29.95 in 10.0 mi WNW 5.8 mph - N/A   Clear
2:15 PM 56.7 °F - 17.2 °F 21% 29.94 in 10.0 mi West 10.4 mph - N/A   Clear
2:35 PM 57.4 °F - 16.5 °F 20% 29.94 in 10.0 mi WNW 6.9 mph - N/A   Clear
2:55 PM 57.9 °F - 17.8 °F 21% 29.94 in 10.0 mi West 10.4 mph - N/A   Clear
3:15 PM 58.3 °F - 18.0 °F 21% 29.94 in 10.0 mi West 8.1 mph - N/A   Clear
3:35 PM 58.3 °F - 17.2 °F 20% 29.93 in 10.0 mi West 10.4 mph - N/A   Clear
3:55 PM 58.1 °F - 17.2 °F 20% 29.93 in 10.0 mi WSW 12.7 mph 17.3 mph N/A   Clear
4:15 PM 58.1 °F - 18.1 °F 21% 29.93 in 10.0 mi WSW 10.4 mph - N/A   Clear
4:35 PM 57.7 °F - 17.4 °F 21% 29.93 in 10.0 mi West 6.9 mph - N/A   Clear
4:55 PM 57.2 °F - 18.0 °F 22% 29.93 in 10.0 mi West 5.8 mph - N/A   Clear
5:35 PM 55.2 °F - 19.4 °F 25% 29.93 in 10.0 mi West 3.5 mph - N/A   Clear
5:55 PM 53.6 °F - 19.6 °F 26% 29.92 in 10.0 mi Calm Calm - N/A   Clear
6:15 PM 51.1 °F - 20.3 °F 30% 29.92 in 10.0 mi Calm Calm - N/A   Clear
6:35 PM 48.9 °F - 20.8 °F 33% 29.92 in 10.0 mi Calm Calm - N/A   Clear
6:55 PM 46.4 °F - 22.5 °F 39% 29.93 in 10.0 mi Calm Calm - N/A   Clear
7:15 PM 45.1 °F - 23.7 °F 43% 29.93 in 10.0 mi Calm Calm - N/A   Clear
7:35 PM 43.9 °F - 24.6 °F 47% 29.93 in 10.0 mi Calm Calm - N/A   Scattered Clouds
7:55 PM 44.2 °F - 24.3 °F 45% 29.93 in 10.0 mi Calm Calm - N/A   Mostly Cloudy
8:15 PM 43.9 °F - 24.8 °F 47% 29.93 in 10.0 mi Calm Calm - N/A   Overcast
8:35 PM 44.6 °F - 23.9 °F 44% 29.93 in 10.0 mi Calm Calm - N/A   Mostly Cloudy
8:55 PM 43.3 °F - 24.6 °F 48% 29.93 in 10.0 mi Calm Calm - N/A   Overcast
9:35 PM 46.2 °F - 24.8 °F 43% 29.93 in 10.0 mi Calm Calm - N/A   Overcast
9:55 PM 46.2 °F - 29.1 °F 51% 29.93 in 10.0 mi Calm Calm - N/A   Overcast
10:15 PM 46.8 °F - 30.0 °F 52% 29.93 in 10.0 mi Calm Calm - N/A   Overcast
10:35 PM 46.9 °F - 31.3 °F 55% 29.93 in 10.0 mi Calm Calm - N/A   Overcast
11:15 PM 48.4 °F - 31.1 °F 51% 29.92 in 10.0 mi Calm Calm - N/A   Overcast
11:35 PM 47.8 °F - 32.0 °F 54% 29.93 in 10.0 mi SW 3.5 mph - N/A   Overcast